Tracking 22459 objects as of 3-Mar-2021
HD Live streaming from Space Station
objects crossing your sky now

COSMOS 1375 DEB

Track COSMOS 1375 DEB now!
10-day predictions


NORAD ID: 16383
Int'l Code: 1982-055X
Perigee: 952.0 km
Apogee: 1,031.8 km
Inclination: 65.8 °
Period: 104.8 minutes
Semi major axis: 7362 km
RCS: 0.1937 m2 (medium)
Launch date: June 6, 1982
Source: Commonwealth of Independent States (former USSR) (CIS)
Launch site: PLESETSK MISSILE AND SPACE COMPLEX (PKMTR)

Note: This is SATELLITE DEBRIS
aabbcc
Your satellite tracking list
Your tracking list is empty




NASA's NSSDC Master Catalog

Two Line Element Set (TLE):
1 16383U 82055X   21061.63782519 -.00000154  00000-0 -76917-4 0  9998
2 16383  65.8308  15.1338 0054141 236.2633 297.2732 13.74132670769417
Source of the keplerian elements: AFSPC